K9APR Weather Reports


Display with metric or nautical units.
time (UTC)temp
F
wind
direction
speed
MPH
gust
MPH
rain 1hr
in
rain 24hr
in
rain mn
in
humidity
%
barometer
mb
20260904231823 80 129 0.0 1.0 0.00 0.21 0.21 83 1013.2
20260904230922 80 129 0.0 0.0 0.00 0.21 0.21 82 1013.3
20260904225200 81 129 0.0 0.0 0.00 0.21 0.21 81 1013.2
20260904225124 81 129 0.0 0.0 0.00 0.21 0.21 81 1013.2
20260904224223 81 129 0.0 1.0 0.00 0.21 0.21 80 1013.3
20260904222457 82 129 0.0 0.0 0.00 0.21 0.21 79 1013.3
20260904222422 82 129 0.0 0.0 0.00 0.21 0.21 79 1013.3
20260904221522 83 134 0.0 1.0 0.00 0.21 0.21 79 1013.4
20260904220624 83 154 0.0 1.0 0.00 0.21 0.21 77 1013.4
20260904215722 83 140 0.0 1.0 0.00 0.21 0.21 81 1013.3
20260904214823 82 129 0.0 1.0 0.00 0.21 0.21 82 1013.1
20260904213922 81 139 0.0 0.0 0.00 0.21 0.21 82 1013.0
20260904213023 80 121 1.0 3.0 0.00 0.21 0.21 84 1012.8
20260904211223 78 124 0.0 1.0 0.01 0.21 0.21 86 1013.3
20260904204522 79 156 0.0 0.0 0.05 0.21 0.21 89 1014.1
20260904203623 77 175 0.0 0.0 0.05 0.21 0.21 88 1013.9
20260904202723 77 78 0.0 0.0 0.05 0.21 0.21 86 1013.9
20260904201937 78 78 0.0 1.0 0.05 0.21 0.21 84 1014.0
20260904201824 78 78 0.0 1.0 0.05 0.21 0.21 84 1014.0
20260904200923 79 176 0.0 0.0 0.03 0.19 0.19 83 1014.3
20260904200023 81 171 1.0 1.0 0.00 0.16 0.16 82 1013.9
20260904195123 83 280 0.0 1.0 0.12 0.16 0.16 85 1013.6
20260904194222 83 41 0.0 0.0 0.16 0.16 0.16 88 1013.4
20260904193322 82 53 0.0 0.0 0.16 0.16 0.16 89 1013.4
20260904192424 81 53 0.0 0.0 0.16 0.16 0.16 89 1013.6
20260904191522 79 53 0.0 0.0 0.16 0.16 0.16 87 1013.6
20260904190622 79 53 0.0 1.0 0.16 0.16 0.16 85 1013.9
20260904185723 82 60 0.0 0.0 0.16 0.16 0.16 77 1013.9
20260904184823 90 326 3.0 3.0 0.00 0.00 0.00 66 1014.0
20260904183922 91 310 2.0 3.0 0.00 0.00 0.00 64 1013.9
20260904183023 90 312 1.0 2.0 0.00 0.00 0.00 68 1013.9
20260904182123 90 320 0.0 2.0 0.00 0.00 0.00 69 1014.1
20260904181223 91 311 2.0 3.0 0.00 0.00 0.00 63 1014.2
20260904180322 92 301 1.0 2.0 0.00 0.00 0.00 62 1014.4
20260904175422 92 314 3.0 3.0 0.00 0.00 0.00 62 1014.8
20260904174522 91 302 1.0 3.0 0.00 0.00 0.00 64 1014.9
20260904173623 92 305 2.0 3.0 0.00 0.00 0.00 63 1015.0
20260904172722 92 313 1.0 2.0 0.00 0.00 0.00 66 1015.0
20260904171037 91 309 1.0 3.0 0.00 0.00 0.00 67 1015.2
20260904170924 91 309 1.0 3.0 0.00 0.00 0.00 67 1015.2
20260904170022 91 315 1.0 2.0 0.00 0.00 0.00 67 1015.3
20260904165123 91 310 1.0 3.0 0.00 0.00 0.00 67 1015.4
20260904164222 90 312 1.0 3.0 0.00 0.00 0.00 69 1015.4
20260904163323 90 302 1.0 3.0 0.00 0.00 0.00 69 1015.4
20260904162422 90 315 2.0 2.0 0.00 0.00 0.00 67 1015.3
20260904161522 90 313 2.0 3.0 0.00 0.00 0.00 69 1015.4
20260904155723 89 307 0.0 1.0 0.00 0.00 0.00 72 1015.6
20260904154822 89 303 1.0 3.0 0.00 0.00 0.00 73 1015.5
20260904153922 88 308 1.0 3.0 0.00 0.00 0.00 72 1015.6
20260904153023 88 308 0.0 1.0 0.00 0.00 0.00 74 1015.4
20260904152123 87 274 1.0 2.0 0.00 0.00 0.00 75 1015.4
20260904151222 86 305 1.0 3.0 0.00 0.00 0.00 76 1015.3
20260904150323 85 315 0.0 1.0 0.00 0.00 0.00 78 1015.4
20260904144523 84 314 1.0 2.0 0.00 0.00 0.00 78 1015.3
20260904143622 83 305 2.0 3.0 0.00 0.00 0.00 79 1015.2
20260904142756 83 310 0.0 1.0 0.00 0.00 0.00 82 1015.2
20260904142722 83 310 0.0 1.0 0.00 0.00 0.00 82 1015.2
20260904141937 82 307 0.0 2.0 0.00 0.00 0.00 83 1015.1
20260904141854 82 307 0.0 2.0 0.00 0.00 0.00 83 1015.1
20260904141823 82 307 0.0 2.0 0.00 0.00 0.00 83 1015.1
20260904141104 81 295 0.0 0.0 0.00 0.00 0.00 84 1015.1
20260904140923 81 295 0.0 0.0 0.00 0.00 0.00 84 1015.1
20260904140056 80 258 0.0 0.0 0.00 0.00 0.00 85 1015.1
20260904140024 80 258 0.0 0.0 0.00 0.00 0.00 85 1015.1
20260904135249 79 185 0.0 0.0 0.00 0.00 0.00 86 1015.1
20260904135213 79 185 0.0 0.0 0.00 0.00 0.00 86 1015.1
20260904135123 79 185 0.0 0.0 0.00 0.00 0.00 86 1015.1
20260904134259 78 164 0.0 0.0 0.00 0.00 0.00 86 1015.2
20260904134223 78 164 0.0 0.0 0.00 0.00 0.00 86 1015.2
20260904133322 77 176 0.0 0.0 0.00 0.00 0.00 87 1015.2
20260904132609 77 162 0.0 0.0 0.00 0.00 0.00 88 1015.3
20260904132422 77 162 0.0 0.0 0.00 0.00 0.00 88 1015.3
20260904130653 76 193 0.0 0.0 0.00 0.00 0.00 88 1015.3
20260904130622 76 193 0.0 0.0 0.00 0.00 0.00 88 1015.3
20260904130035 75 192 0.0 0.0 0.00 0.00 0.00 89 1015.5
20260904125826 75 192 0.0 0.0 0.00 0.00 0.00 89 1015.5
20260904125755 75 192 0.0 0.0 0.00 0.00 0.00 89 1015.5
20260904125722 75 192 0.0 0.0 0.00 0.00 0.00 89 1015.5
20260904124822 75 192 0.0 0.0 0.00 0.00 0.00 89 1015.4
20260904124011 74 187 0.0 0.0 0.00 0.00 0.00 89 1015.2
20260904123923 74 187 0.0 0.0 0.00 0.00 0.00 89 1015.2
20260904123023 74 172 0.0 0.0 0.00 0.00 0.00 89 1015.2
20260904122202 73 172 0.0 0.0 0.00 0.00 0.00 89 1015.1
20260904122124 73 172 0.0 0.0 0.00 0.00 0.00 89 1015.1
20260904121255 73 172 0.0 0.0 0.00 0.00 0.00 90 1015.1
20260904121222 73 172 0.0 0.0 0.00 0.00 0.00 90 1015.1
20260904120324 73 172 0.0 0.0 0.00 0.00 0.00 90 1015.0
20260904115454 73 172 0.0 0.0 0.00 0.00 0.00 90 1014.8
20260904115422 73 172 0.0 0.0 0.00 0.00 0.00 90 1014.8
20260904114746 73 172 0.0 0.0 0.00 0.00 0.00 90 1014.6
20260904114526 73 172 0.0 0.0 0.00 0.00 0.00 90 1014.6
20260904113700 73 172 0.0 0.0 0.00 0.00 0.00 90 1014.6
20260904113622 73 172 0.0 0.0 0.00 0.00 0.00 90 1014.6
20260904112815 73 172 0.0 0.0 0.00 0.00 0.00 90 1014.4
20260904112723 73 172 0.0 0.0 0.00 0.00 0.00 90 1014.4
20260904111822 73 172 0.0 0.0 0.00 0.00 0.00 90 1014.3
20260904111020 72 172 0.0 0.0 0.00 0.00 0.00 90 1014.2
20260904110922 72 172 0.0 0.0 0.00 0.00 0.00 90 1014.2
20260904110159 72 172 0.0 0.0 0.00 0.00 0.00 90 1014.1
20260904110029 72 172 0.0 0.0 0.00 0.00 0.00 90 1014.1
20260904105200 73 172 0.0 0.0 0.00 0.00 0.00 90 1014.1
20260904105124 73 172 0.0 0.0 0.00 0.00 0.00 90 1014.1
20260904104223 73 172 0.0 0.0 0.00 0.00 0.00 90 1013.9
20260904103402 73 172 0.0 0.0 0.00 0.00 0.00 90 1013.8
20260904103322 73 172 0.0 0.0 0.00 0.00 0.00 90 1013.8
20260904102515 73 172 0.0 0.0 0.00 0.00 0.00 90 1013.8
20260904102421 73 172 0.0 0.0 0.00 0.00 0.00 90 1013.8
20260904100658 73 171 0.0 0.0 0.00 0.00 0.00 90 1013.9
20260904095805 73 171 0.0 0.0 0.00 0.00 0.00 90 1013.9
20260904095723 73 171 0.0 0.0 0.00 0.00 0.00 90 1013.9
20260904094856 74 171 0.0 0.0 0.00 0.00 0.00 90 1013.9
20260904094823 74 171 0.0 0.0 0.00 0.00 0.00 90 1013.9
20260904093953 74 171 0.0 0.0 0.00 0.00 0.00 90 1013.8
20260904093921 74 171 0.0 0.0 0.00 0.00 0.00 90 1013.8
20260904093119 73 171 0.0 0.0 0.00 0.00 0.00 90 1013.9
20260904093022 73 171 0.0 0.0 0.00 0.00 0.00 90 1013.9
20260904092504 73 171 0.0 0.0 0.00 0.00 0.00 90 1013.8
20260904092246 73 171 0.0 0.0 0.00 0.00 0.00 90 1013.8
20260904092153 73 171 0.0 0.0 0.00 0.00 0.00 90 1013.8
20260904092122 73 171 0.0 0.0 0.00 0.00 0.00 90 1013.8
20260904091221 74 171 0.0 0.0 0.00 0.00 0.00 91 1013.9
20260904090509 74 171 0.0 0.0 0.00 0.00 0.00 91 1013.9
20260904090352 74 171 0.0 0.0 0.00 0.00 0.00 91 1013.9
20260904090321 74 171 0.0 0.0 0.00 0.00 0.00 91 1013.9
20260904085422 73 171 0.0 0.0 0.00 0.00 0.00 91 1013.8
20260904084524 73 171 0.0 0.0 0.00 0.00 0.00 91 1013.8
20260904083623 73 337 0.0 0.0 0.00 0.00 0.00 91 1013.8
20260904082722 73 337 0.0 0.0 0.00 0.00 0.00 91 1013.9
20260904081822 72 337 0.0 0.0 0.00 0.00 0.00 91 1013.8
20260904080923 72 337 0.0 0.0 0.00 0.00 0.00 91 1014.0
20260904080058 72 337 0.0 0.0 0.00 0.00 0.00 91 1014.0
20260904080022 72 337 0.0 0.0 0.00 0.00 0.00 91 1014.0
20260904075122 72 337 0.0 0.0 0.00 0.00 0.00 91 1014.1
20260904074255 72 337 0.0 0.0 0.00 0.00 0.00 91 1014.1
20260904074222 72 337 0.0 0.0 0.00 0.00 0.00 91 1014.1
20260904073322 72 337 0.0 0.0 0.00 0.00 0.00 90 1014.2
20260904072453 72 337 0.0 0.0 0.00 0.00 0.00 90 1014.3
20260904072422 72 337 0.0 0.0 0.00 0.00 0.00 90 1014.3
20260904071558 72 337 0.0 0.0 0.00 0.00 0.00 90 1014.5
20260904071523 72 337 0.0 0.0 0.00 0.00 0.00 90 1014.5
20260904070622 72 337 0.0 0.0 0.00 0.00 0.00 90 1014.6
20260904065723 72 337 0.0 0.0 0.00 0.00 0.00 90 1014.7
20260904064822 73 337 0.0 0.0 0.00 0.00 0.00 90 1014.6
20260904063922 73 337 0.0 0.0 0.00 0.00 0.00 90 1014.7
20260904063021 73 337 0.0 0.0 0.00 0.00 0.00 89 1014.8
20260904062122 73 337 0.0 0.0 0.00 0.00 0.00 89 1014.7
20260904061257 73 337 0.0 0.0 0.00 0.00 0.00 89 1014.8
20260904061221 73 337 0.0 0.0 0.00 0.00 0.00 89 1014.8
20260904060522 74 337 0.0 0.0 0.00 0.00 0.00 89 1014.8
20260904060405 74 337 0.0 0.0 0.00 0.00 0.00 90 1014.9
20260904060321 74 337 0.0 0.0 0.00 0.00 0.00 89 1014.8
20260904060308 74 337 0.0 0.0 0.00 0.00 0.00 90 1014.9
20260904055425 74 337 0.0 0.0 0.00 0.00 0.00 90 1014.9
20260904054522 74 337 0.0 0.0 0.00 0.00 0.00 89 1014.9
20260904053621 74 337 0.0 0.0 0.00 0.00 0.00 89 1015.0
20260904052723 74 337 0.0 0.0 0.00 0.00 0.00 89 1015.0
20260904051821 74 337 0.0 0.0 0.00 0.00 0.00 89 1014.9
20260904050921 74 337 0.0 0.0 0.00 0.00 0.00 89 1014.9
20260904050100 74 337 0.0 0.0 0.00 0.00 0.00 88 1014.9
20260904050022 74 337 0.0 0.0 0.00 0.00 0.00 88 1014.9
20260904045123 74 337 0.0 0.0 0.00 0.00 0.00 88 1014.8
20260904044222 75 337 0.0 0.0 0.00 0.00 0.00 88 1014.8
20260904043322 75 337 0.0 0.0 0.00 0.00 0.00 88 1014.7
20260904042422 74 337 0.0 0.0 0.00 0.00 0.00 88 1014.6
20260904041522 74 337 0.0 0.0 0.00 0.00 0.00 88 1014.6
20260904040622 74 337 0.0 0.0 0.00 0.00 0.00 88 1014.6
20260904035722 75 337 0.0 0.0 0.00 0.00 0.00 88 1014.5
20260904034821 75 337 0.0 0.0 0.00 0.00 0.00 88 1014.6
20260904033921 75 337 0.0 0.0 0.00 0.00 0.00 87 1014.6
20260904033022 76 337 0.0 0.0 0.00 0.00 0.00 87 1014.6
20260904032122 77 337 0.0 0.0 0.00 0.00 0.00 86 1014.6
20260904031222 77 337 0.0 0.0 0.00 0.00 0.00 86 1014.8
20260904030322 78 337 0.0 0.0 0.00 0.00 0.00 86 1014.7
20260904025423 78 337 0.0 0.0 0.00 0.00 0.00 86 1014.9
20260904024522 78 337 0.0 0.0 0.00 0.00 0.00 85 1014.8
20260904023624 79 337 0.0 0.0 0.00 0.00 0.00 85 1014.9
20260904022721 79 337 0.0 0.0 0.00 0.00 0.00 84 1014.9
20260904021821 80 337 0.0 0.0 0.00 0.00 0.00 84 1014.9
20260904020921 81 125 0.0 0.0 0.00 0.00 0.00 83 1014.9
20260904020022 81 125 0.0 0.0 0.00 0.00 0.00 80 1014.7
20260904015122 82 125 0.0 0.0 0.00 0.00 0.00 79 1014.6
20260904014222 82 132 0.0 2.0 0.00 0.00 0.00 79 1014.6
20260904013322 82 137 0.0 0.0 0.00 0.00 0.00 79 1014.3
20260904012422 82 137 0.0 0.0 0.00 0.00 0.00 79 1014.1
20260904011522 82 138 0.0 1.0 0.00 0.00 0.00 79 1014.1
20260904010625 82 138 0.0 0.0 0.00 0.00 0.00 78 1014.1
20260904005722 82 117 0.0 0.0 0.00 0.00 0.00 79 1013.9
20260904004821 83 119 0.0 1.0 0.00 0.00 0.00 79 1014.0
20260904003921 83 143 0.0 0.0 0.00 0.00 0.00 78 1013.9
20260904003022 84 143 0.0 0.0 0.00 0.00 0.00 77 1013.9
20260904002123 84 143 0.0 0.0 0.00 0.00 0.00 76 1013.9
20260904001223 84 143 0.0 0.0 0.00 0.00 0.00 76 1014.0
20260904000322 85 143 0.0 0.0 0.00 0.00 0.00 74 1014.0
20260903235422 85 143 0.0 0.0 0.00 0.00 0.00 74 1014.0
20260903234522 85 143 0.0 0.0 0.00 0.00 0.00 73 1014.0
20260903232722 86 144 0.0 0.0 0.00 0.00 0.00 71 1013.7